sat.trackr.live / text

‹ back to catalog

STARLINK-33779

NORAD 63880 · 2025-094S

PAYLOAD ACTIVE UNKNOWN

§ Identity

Operator
Country
US
Launch date
2025-05-10
Launch site
AFWTR
Launch vehicle
Mass (kg)
RCS (m²)

Purposes: comms

External: N2YO · Heavens-Above · Gunter

§ Orbital elements

Epoch: 2026-05-25T03:34:56.163360Z

Period
96.11 min
Inclination
70.0020°
Eccentricity
0.0002814
Mean motion
14.98339997 rev/d
Perigee alt
570.1 km
Apogee alt
574.0 km
Semi-major
6,950.2 km
B*
2.9246e-4
RAAN
41.7769°
Arg perigee
264.9307°
Mean anomaly
95.1531°
Rev number
5,865

§ Raw data

STARLINK-337791 63880U 25094S   26145.14926115  .00003399  00000+0  29246-3 0  99912 63880  70.0020  41.7769 0002814 264.9307  95.1531 14.98339997 58656

JSON: /api/v1/satellites/63880 · /tle

For live sub-satellite position, see the globe view (requires WebGL).

§ Visibility from observer

Set your observer location to see the next 7 days of passes ≥ 10°. The values pass through the URL so the page stays shareable.

No JS? Fill the form by hand. The geolocation button needs JavaScript.